Total_Precipitation_Accumulation
0.45 0.44 0.41 0.36 0.33 0.33 0.34 0.37 0.39 0.39 0.41 0.45 0.48 0.51 0.52 0.53 0.53 0.55 0.56 0.61 0.67 0.72 0.76 0.88 0.96 0.98 1.01 1.06 1.15 1.23 1.36 1.47 1.33 1.13 1.08 1.11 1.10 0.99 0.79 0.58 0.40 0.31 0.23
0.60 0.65 0.71 0.69 0.62 0.53 0.41 0.38 0.42 0.47 0.48 0.49 0.51 0.53 0.51 0.54 0.61 0.68 0.67 0.71 0.76 0.77 0.78 0.80 0.80 0.85 0.95 0.97 1.03 1.07 1.17 1.34 1.28 1.19 1.21 1.24 1.23 1.14 0.97 0.75 0.53 0.37 0.30
0.85 1.00 1.11 1.09 0.91 0.68 0.50 0.42 0.44 0.49 0.53 0.54 0.59 0.67 0.69 0.69 0.69 0.74 0.80 0.81 0.75 0.70 0.70 0.69 0.67 0.68 0.73 0.82 0.91 0.91 0.93 1.05 1.15 1.21 1.29 1.34 1.40 1.26 1.04 0.85 0.68 0.55 0.38
0.70 0.89 1.03 1.09 0.91 0.68 0.54 0.47 0.42 0.40 0.44 0.49 0.57 0.68 0.77 0.81 0.84 0.80 0.75 0.73 0.67 0.63 0.58 0.55 0.57 0.60 0.61 0.64 0.74 0.78 0.81 0.90 1.01 1.10 1.26 1.40 1.39 1.39 1.24 1.02 0.87 0.76 0.55
0.39 0.56 0.72 0.82 0.68 0.47 0.36 0.31 0.28 0.33 0.40 0.51 0.62 0.70 0.82 0.88 0.83 0.80 0.72 0.68 0.67 0.59 0.53 0.48 0.47 0.46 0.48 0.54 0.57 0.61 0.66 0.75 0.81 0.89 1.04 1.23 1.30 1.33 1.24 1.06 0.92 0.89 0.75
0.32 0.38 0.48 0.54 0.45 0.32 0.20 0.15 0.20 0.28 0.36 0.43 0.50 0.56 0.59 0.56 0.58 0.55 0.52 0.50 0.51 0.48 0.45 0.44 0.40 0.37 0.40 0.42 0.40 0.46 0.51 0.55 0.64 0.76 0.84 1.00 1.13 1.16 1.20 1.23 1.09 0.91 0.85
0.35 0.35 0.41 0.45 0.40 0.28 0.16 0.15 0.18 0.25 0.31 0.36 0.38 0.41 0.42 0.42 0.35 0.31 0.30 0.31 0.36 0.38 0.39 0.40 0.33 0.29 0.34 0.35 0.32 0.30 0.33 0.37 0.44 0.58 0.69 0.78 0.94 1.05 1.12 1.25 1.24 1.16 1.04
0.31 0.32 0.41 0.49 0.45 0.36 0.29 0.27 0.28 0.33 0.35 0.36 0.36 0.36 0.40 0.38 0.30 0.23 0.21 0.20 0.26 0.29 0.34 0.37 0.36 0.32 0.32 0.33 0.31 0.26 0.22 0.25 0.29 0.36 0.45 0.59 0.80 1.05 1.13 1.13 1.21 1.25 1.20
0.29 0.35 0.41 0.49 0.51 0.45 0.42 0.42 0.44 0.44 0.43 0.41 0.39 0.38 0.40 0.41 0.32 0.22 0.19 0.21 0.28 0.29 0.30 0.33 0.35 0.33 0.34 0.28 0.28 0.28 0.27 0.25 0.25 0.31 0.36 0.47 0.63 0.85 1.12 1.12 1.03 0.97 0.93
0.32 0.38 0.44 0.54 0.61 0.56 0.54 0.55 0.55 0.57 0.51 0.48 0.44 0.45 0.48 0.52 0.44 0.26 0.21 0.25 0.32 0.37 0.41 0.40 0.37 0.36 0.34 0.28 0.28 0.31 0.28 0.26 0.25 0.25 0.28 0.35 0.42 0.55 0.79 0.92 0.83 0.69 0.61
0.31 0.36 0.46 0.61 0.68 0.67 0.71 0.74 0.70 0.65 0.63 0.63 0.58 0.56 0.59 0.61 0.54 0.31 0.23 0.30 0.36 0.44 0.47 0.48 0.42 0.37 0.31 0.28 0.29 0.32 0.31 0.29 0.33 0.32 0.30 0.31 0.37 0.44 0.53 0.65 0.72 0.64 0.52
0.34 0.41 0.53 0.61 0.57 0.56 0.73 0.81 0.81 0.79 0.76 0.74 0.71 0.67 0.66 0.66 0.54 0.37 0.26 0.32 0.42 0.54 0.56 0.54 0.52 0.44 0.35 0.33 0.33 0.33 0.34 0.33 0.36 0.40 0.37 0.34 0.33 0.35 0.41 0.51 0.57 0.59 0.55
0.42 0.47 0.54 0.58 0.64 0.73 0.80 0.81 0.85 0.87 0.83 0.78 0.77 0.77 0.76 0.81 0.71 0.41 0.33 0.40 0.49 0.58 0.63 0.61 0.58 0.50 0.41 0.36 0.39 0.39 0.35 0.33 0.36 0.40 0.39 0.33 0.29 0.30 0.37 0.48 0.54 0.52 0.52
0.49 0.48 0.51 0.58 0.64 0.78 0.92 0.92 0.89 0.87 0.88 0.86 0.83 0.80 0.81 0.87 0.85 0.64 0.48 0.54 0.60 0.65 0.64 0.62 0.58 0.56 0.49 0.44 0.45 0.42 0.37 0.38 0.40 0.38 0.39 0.39 0.37 0.37 0.39 0.43 0.47 0.47 0.44
0.59 0.54 0.53 0.58 0.67 0.79 0.89 0.95 0.89 0.87 0.74 0.75 0.77 0.78 0.77 0.81 0.82 0.71 0.67 0.76 0.83 0.83 0.80 0.81 0.73 0.63 0.55 0.50 0.48 0.48 0.46 0.48 0.46 0.45 0.45 0.48 0.46 0.40 0.38 0.40 0.45 0.44 0.37
0.75 0.70 0.67 0.69 0.74 0.78 0.85 0.85 0.73 0.63 0.52 0.49 0.49 0.51 0.51 0.55 0.64 0.61 0.59 0.72 0.82 0.88 0.88 0.88 0.81 0.71 0.60 0.56 0.56 0.55 0.51 0.49 0.46 0.46 0.46 0.48 0.50 0.45 0.39 0.39 0.42 0.44 0.39
0.88 0.86 0.84 0.78 0.79 0.84 0.89 0.95 0.92 0.76 0.60 0.49 0.40 0.35 0.36 0.41 0.51 0.55 0.59 0.69 0.78 0.84 0.84 0.84 0.77 0.71 0.63 0.59 0.59 0.57 0.52 0.49 0.48 0.48 0.46 0.47 0.50 0.49 0.43 0.40 0.38 0.40 0.41
0.89 0.88 0.86 0.84 0.82 0.85 0.89 0.91 0.96 0.98 0.89 0.72 0.51 0.38 0.34 0.35 0.41 0.49 0.57 0.69 0.81 0.82 0.79 0.79 0.73 0.67 0.63 0.61 0.58 0.57 0.55 0.52 0.50 0.48 0.48 0.47 0.48 0.46 0.46 0.41 0.36 0.34 0.37
0.87 0.85 0.82 0.83 0.84 0.83 0.85 0.86 0.85 0.90 0.90 0.85 0.70 0.52 0.43 0.38 0.39 0.48 0.54 0.63 0.79 0.80 0.78 0.74 0.68 0.62 0.59 0.59 0.56 0.54 0.52 0.49 0.48 0.49 0.48 0.46 0.47 0.42 0.40 0.41 0.38 0.37 0.35
0.88 0.80 0.74 0.74 0.79 0.81 0.82 0.83 0.80 0.85 0.84 0.85 0.75 0.60 0.48 0.42 0.44 0.47 0.51 0.63 0.79 0.81 0.75 0.69 0.65 0.58 0.55 0.54 0.52 0.49 0.49 0.47 0.46 0.47 0.48 0.47 0.47 0.41 0.35 0.36 0.39 0.38 0.32
0.91 0.81 0.67 0.66 0.70 0.75 0.79 0.80 0.78 0.77 0.77 0.79 0.69 0.51 0.42 0.40 0.46 0.51 0.56 0.66 0.75 0.72 0.65 0.61 0.59 0.54 0.49 0.45 0.43 0.41 0.41 0.42 0.41 0.42 0.42 0.45 0.47 0.41 0.34 0.33 0.35 0.37 0.35
0.96 0.88 0.76 0.64 0.62 0.67 0.73 0.76 0.75 0.72 0.70 0.70 0.62 0.44 0.37 0.36 0.40 0.45 0.49 0.58 0.63 0.61 0.57 0.52 0.48 0.43 0.39 0.37 0.34 0.34 0.35 0.36 0.37 0.38 0.37 0.40 0.45 0.40 0.36 0.34 0.33 0.35 0.37
0.88 0.83 0.73 0.57 0.55 0.59 0.66 0.72 0.70 0.64 0.64 0.63 0.54 0.42 0.36 0.36 0.37 0.41 0.47 0.51 0.53 0.54 0.52 0.46 0.39 0.35 0.33 0.31 0.29 0.28 0.27 0.29 0.29 0.30 0.30 0.33 0.39 0.38 0.36 0.32 0.31 0.31 0.32
0.75 0.75 0.71 0.53 0.48 0.59 0.65 0.69 0.65 0.56 0.57 0.54 0.44 0.38 0.34 0.34 0.34 0.36 0.40 0.42 0.44 0.44 0.40 0.37 0.32 0.29 0.26 0.25 0.26 0.26 0.25 0.25 0.27 0.28 0.25 0.26 0.30 0.32 0.33 0.31 0.29 0.29 0.29
0.69 0.67 0.69 0.57 0.48 0.54 0.62 0.64 0.59 0.51 0.46 0.40 0.34 0.31 0.29 0.28 0.30 0.32 0.33 0.36 0.38 0.36 0.31 0.28 0.29 0.28 0.24 0.20 0.21 0.21 0.24 0.25 0.27 0.27 0.25 0.24 0.24 0.26 0.29 0.28 0.26 0.27 0.29
0.67 0.65 0.67 0.63 0.54 0.53 0.57 0.56 0.52 0.43 0.34 0.28 0.24 0.23 0.25 0.26 0.26 0.27 0.27 0.27 0.27 0.26 0.25 0.25 0.24 0.22 0.19 0.17 0.16 0.17 0.20 0.23 0.24 0.26 0.25 0.23 0.24 0.26 0.27 0.25 0.23 0.24 0.25